User: anonymous   Login
Location: Mentone
(34.5413°N, 85.5351°W)
Time: 07:44:08
(UTC-05:00)
Language:

Transit 2A Rocket - Orbit

View from above orbital plane
View from above orbital plane
View from above satellite
View from above satellite

Ground track
Ground track

The orbit data is extracted from the following two-line orbital elements,

1 00047U 60007C   17265.68178795 -.00000006  00000-0  23816-4 0  9997
2 00047  66.6655 305.3071 0233525 312.5907  45.5700 14.41937287991111
Epoch (UTC): 22 September 2017 16:21:46
Eccentricity: 0.0233525
inclination: 66.6655°
perigee height: 585 km
apogee height: 918 km
right ascension of ascending node: 305.3071°
argument of perigee: 312.5907°
revolutions per day: 14.41937287
mean anomaly at epoch: 45.5700°
orbit number at epoch: 99111

The dashed part of the orbit path shows where the satellite is in the earth's shadow,  

DLR